Weather in Vasil'kovo

Russia / Kaliningrad Oblast     54°53′28″N   20°23′38″E
temp.,
°C
wind,
m/s
gust,
m/s
humid.,
%
clouds,
%
prec.,
mm/h
press.,
hPa
HPBL,
m
18 may, tue
tue1823:00+11ene447752 0.0 100418
02:00+10ese338299 0.0 100524
05:00+10ne228668 0.0 100410
08:00+9ne359395 0.0 100569
11:00+9n3494100 0.0 100695
14:00+11nnw568854 0.0 100699
17:00+11nw698512 0.0 1006150
20:00+10nw7118617 0.0 1006160
19 may, wed
wed1923:00+10nw71189100 0.0 1007163
02:00+9nw61088100 0.0 1007154
05:00+9wnw5890100 0.0 1007130
08:00+9w7991100 0.0 1007180
11:00+9w8992100 0.0 1008196
14:00+9wnw7991100 0.0 1009193
17:00+9wnw71093100 1.1 1010315
20:00+9wnw6891100 3.6 1011211
20 may, thu
thu2023:00+9w8108899 0.2 1011174
02:00+9w711905 0.2 1011228
05:00+9w811905 0.0 1011233
08:00+10wnw711845 0.0 1012201
11:00+10wnw710850 0.0 1014255
14:00+10w710850 0.0 1014291
17:00+10wnw711870 0.0 1015404
20:00+9w712825 0.0 1015464
21 may, fri
fri2123:00+9wsw912840 0.0 1015634
02:00+9wsw912835 0.0 1015549
05:00+9wsw911835 0.0 1015498
08:00+9wsw71078100 0.0 1015530
11:00+11wsw687192 0.0 1015184
14:00+13sw6968100 0.1 1014163
17:00+13sw6874100 0.7 1012118
20:00+12s6982100 1.1 1011103
22 may, sat
sat2223:00+11sse71386100 0.1 1009193
02:00+11s81382100 0.3 1007281
05:00+11ssw101584100 0.2 1006397
08:00+11s4689100 0.7 100795
11:00+13s71082100 0.4 1005167
14:00+13s6985100 0.9 1005116
17:00+13s4586100 1.4 100457
20:00+11w6998100 6.4 1003180